YAOGAN-43 02C

Last updated on Fri Oct 04 2024 00:02:03 GMT+0000 (Coordinated Universal Time)

1 60947U 24156C 24277.36408964 .00020071 00000+0 83272-3 0 9990 2 60947 34.9986 148.8619 0004934 268.0628 91.9522 15.22978488 4585
UTC large
Height (km)
Speed (km/s)
/
Latitude / Longitude
Inclination (degrees)
Orbital Period (minutes)
Azimuth
Elevation
Range (km)
Doppler Factor

Next 0 passes for location: London (51.5072 / 0.1276)

Sorry there are no passes over London.